KM4FZA Weather Reports


time (UTC)temp
C
wind
direction
speed
KPH
gust
KPH
rain 1hr
cm
rain 24hr
cm
rain mn
cm
humidity
%
barometer
mb
20260510223518 31 285 1.6 4.8 0.00 0.00 0.00 27 1017.8
20260510222538 30 270 1.6 6.4 0.00 0.00 0.00 25 1017.7
20260510221517 31 248 6.4 8.0 0.00 0.00 0.00 24 1017.7
20260510220517 31 0.0 1.6 0.00 0.00 0.00 28 1017.5
20260510215516 32 244 3.2 4.8 0.00 0.00 0.00 23 1017.6
20260510214515 30 249 3.2 8.0 0.00 0.00 0.00 23 1017.7
20260510213515 30 219 4.8 9.7 0.00 0.00 0.00 25 1017.7
20260510212527 29 270 3.2 6.4 0.00 0.00 0.00 25 1017.6
20260510211532 29 220 9.7 16.1 0.00 0.00 0.00 25 1017.6
20260510210520 29 277 8.0 11.3 0.00 0.00 0.00 25 1017.7
20260510205525 28 241 4.8 9.7 0.00 0.00 0.00 26 1017.6
20260510204530 28 237 4.8 9.7 0.00 0.00 0.00 25 1017.7
20260510203518 28 209 4.8 9.7 0.00 0.00 0.00 26 1017.9
20260510202525 29 240 8.0 9.7 0.00 0.00 0.00 26 1017.8
20260510201529 29 213 3.2 8.0 0.00 0.00 0.00 26 1017.8
20260510200516 29 212 9.7 12.9 0.00 0.00 0.00 26 1017.9
20260510195522 28 231 8.0 12.9 0.00 0.00 0.00 26 1017.9
20260510194527 29 202 8.0 14.5 0.00 0.00 0.00 27 1017.9
20260510193515 28 228 8.0 11.3 0.00 0.00 0.00 28 1018.0
20260510192521 28 280 4.8 11.3 0.00 0.00 0.00 28 1018.1
20260510191547 29 279 4.8 6.4 0.00 0.00 0.00 28 1018.2
20260510190532 29 239 3.2 8.0 0.00 0.00 0.00 29 1018.2
20260510185539 28 232 8.0 11.3 0.00 0.00 0.00 28 1018.3
20260510184706 28 246 4.8 6.4 0.00 0.00 0.00 29 1018.3
20260510183530 28 123 4.8 9.7 0.00 0.00 0.00 29 1018.4
20260510182518 29 276 6.4 9.7 0.00 0.00 0.00 26 1018.5
20260510181523 28 90 4.8 8.0 0.00 0.00 0.00 29 1018.6
20260510180528 28 267 4.8 11.3 0.00 0.00 0.00 29 1018.7
20260510175536 28 104 4.8 6.4 0.00 0.00 0.00 29 1018.7
20260510174522 28 83 4.8 6.4 0.00 0.00 0.00 29 1018.8
20260510173527 28 82 3.2 8.0 0.00 0.00 0.00 31 1019.0
20260510172516 28 278 4.8 11.3 0.00 0.00 0.00 30 1019.0
20260510171520 27 108 6.4 9.7 0.00 0.00 0.00 31 1019.1
20260510170526 27 107 4.8 11.3 0.00 0.00 0.00 31 1019.1
20260510165531 27 58 3.2 4.8 0.00 0.00 0.00 30 1019.1
20260510164518 27 98 8.0 12.9 0.00 0.00 0.00 30 1019.2
20260510163545 27 101 6.4 12.9 0.00 0.00 0.00 32 1019.2
20260510162530 27 97 6.4 8.0 0.00 0.00 0.00 34 1019.3
20260510161518 27 354 6.4 12.9 0.00 0.00 0.00 34 1019.3
20260510160523 27 151 3.2 8.0 0.00 0.00 0.00 34 1019.4
20260510155528 27 78 4.8 8.0 0.00 0.00 0.00 35 1019.2
20260510154517 26 91 3.2 6.4 0.00 0.00 0.00 37 1019.3
20260510153521 26 99 4.8 8.0 0.00 0.00 0.00 38 1019.3
20260510152527 26 206 4.8 6.4 0.00 0.00 0.00 38 1019.5
20260510151613 25 158 4.8 8.0 0.00 0.00 0.00 41 1019.6
20260510150520 25 186 6.4 8.0 0.00 0.00 0.00 41 1019.6
20260510145525 25 102 6.4 11.3 0.00 0.00 0.00 43 1019.6
20260510144531 25 255 4.8 8.0 0.00 0.00 0.00 44 1019.6
20260510143518 24 90 4.8 8.0 0.00 0.00 0.00 49 1019.4
20260510142524 23 105 4.8 6.4 0.00 0.00 0.00 50 1019.3
20260510141530 23 276 6.4 11.3 0.00 0.00 0.00 51 1019.3
20260510140517 23 218 4.8 9.7 0.00 0.00 0.00 56 1019.3
20260510135522 22 247 4.8 9.7 0.00 0.00 0.00 59 1019.3
20260510134528 22 268 4.8 8.0 0.00 0.00 0.00 62 1019.3
20260510133515 21 181 3.2 6.4 0.00 0.00 0.00 68 1019.3
20260510132521 21 265 6.4 9.7 0.00 0.00 0.00 70 1019.3
20260510131526 21 242 4.8 9.7 0.00 0.00 0.00 72 1019.3
20260510130533 21 232 4.8 8.0 0.00 0.00 0.00 78 1019.2
20260510125539 20 254 4.8 8.0 0.00 0.00 0.00 84 1019.2
20260510124525 18 202 3.2 4.8 0.00 0.00 0.00 90 1019.0
20260510123550 17 217 4.8 6.4 0.00 0.00 0.00 96 1018.6
20260510122518 16 267 3.2 6.4 0.00 0.00 0.00 99 1018.5
20260510121523 15 262 4.8 6.4 0.00 0.00 0.00 99 1018.4
20260510120530 15 270 1.6 6.4 0.00 0.00 0.00 99 1018.3
20260510115536 13 0.0 0.0 0.00 0.00 0.00 99 1018.1
20260510114622 13 0.0 0.0 0.00 0.00 0.00 99 1018.0
20260510113527 12 0.0 0.0 0.00 0.00 0.00 99 1017.9
20260510112516 12 0.0 0.0 0.00 0.00 0.00 99 1017.8
20260510111520 12 0.0 0.0 0.00 0.00 0.00 99 1017.7
20260510110526 12 0.0 0.0 0.00 0.00 0.00 99 1017.6
20260510105531 12 0.0 0.0 0.00 0.00 0.00 99 1017.3
20260510104519 12 0.0 0.0 0.00 0.00 0.00 99 1017.1
20260510103546 12 0.0 0.0 0.00 0.00 0.00 99 1017.1
20260510102530 12 0.0 0.0 0.00 0.00 0.00 99 1016.9
20260510101518 12 0.0 0.0 0.00 0.00 0.00 99 1016.8
20260510100523 12 0.0 0.0 0.00 0.00 0.00 99 1016.7
20260510095528 12 0.0 0.0 0.00 0.00 0.00 99 1016.6
20260510094516 12 0.0 0.0 0.00 0.00 0.00 99 1016.5
20260510093522 13 0.0 0.0 0.00 0.00 0.00 99 1016.4
20260510092527 13 0.0 0.0 0.00 0.00 0.00 99 1016.3
20260510091535 13 0.0 0.0 0.00 0.00 0.00 99 1016.2
20260510090520 13 0.0 0.0 0.00 0.00 0.00 99 1016.2
20260510085525 13 0.0 0.0 0.00 0.00 0.00 99 1016.0
20260510084532 13 0.0 0.0 0.00 0.00 0.00 99 1015.8
20260510083519 13 0.0 0.0 0.00 0.00 0.00 99 1015.8
20260510082524 13 0.0 0.0 0.00 0.00 0.00 99 1015.8
20260510081550 13 0.0 0.0 0.00 0.00 0.00 99 1015.8
20260510080517 13 0.0 0.0 0.00 0.00 0.00 99 1015.7
20260510075523 13 0.0 0.0 0.00 0.00 0.00 99 1015.5
20260510074528 13 0.0 0.0 0.00 0.00 0.00 99 1015.5
20260510073516 13 0.0 0.0 0.00 0.00 0.00 99 1015.5
20260510072521 13 0.0 0.0 0.00 0.00 0.00 99 1015.5
20260510071527 14 0.0 0.0 0.00 0.00 0.00 99 1015.5
20260510070532 14 272 3.2 3.2 0.00 0.00 0.00 99 1015.5
20260510065520 14 0.0 0.0 0.00 0.00 0.00 99 1015.2
20260510064526 14 0.0 0.0 0.00 0.00 0.00 99 1015.5
20260510063531 14 0.0 0.0 0.00 0.00 0.00 99 1015.5
20260510062518 14 0.0 0.0 0.00 0.00 0.00 99 1015.5
20260510061544 14 0.0 0.0 0.00 0.00 0.00 99 1015.5
20260510060529 14 0.0 0.0 0.00 0.00 0.00 99 1015.5
20260510055517 15 0.0 0.0 0.00 0.00 0.00 99 1015.5
20260510054523 15 0.0 0.0 0.00 0.00 0.00 99 1015.3
20260510053528 15 0.0 0.0 0.00 0.00 0.00 99 1015.5
20260510052515 15 0.0 0.0 0.00 0.00 0.00 99 1015.6
20260510051521 15 0.0 0.0 0.00 0.00 0.00 98 1015.7
20260510050546 15 0.0 0.0 0.00 0.00 0.00 97 1015.5
20260510045525 15 0.0 0.0 0.00 0.00 0.00 98 1015.7
20260510044519 15 0.0 0.0 0.00 0.00 0.00 96 1015.7
20260510043525 16 0.0 0.0 0.00 0.00 0.00 96 1015.8
20260510042545 16 0.0 0.0 0.00 0.00 0.00 94 1015.8
20260510041538 16 225 0.0 3.2 0.00 0.00 0.00 94 1015.9
20260510040523 16 230 1.6 3.2 0.00 0.00 0.00 94 1016.0
20260510035543 16 0.0 0.0 0.00 0.00 0.00 93 1016.0
20260510034516 16 0.0 0.0 0.00 0.00 0.00 92 1015.8
20260510033522 16 0.0 0.0 0.00 0.00 0.00 92 1015.8
20260510032521 17 239 3.2 4.8 0.00 0.00 0.00 91 1015.8
20260510031514 17 0.0 0.0 0.00 0.00 0.00 91 1015.8
20260510030520 17 199 1.6 4.8 0.00 0.00 0.00 90 1015.8
20260510025520 17 251 1.6 3.2 0.00 0.00 0.00 89 1015.7
20260510024519 17 264 3.2 4.8 0.00 0.00 0.00 89 1015.5
20260510023519 17 243 3.2 4.8 0.00 0.00 0.00 89 1015.5
20260510022540 17 264 4.8 6.4 0.00 0.00 0.00 89 1015.5
20260510021518 17 264 4.8 4.8 0.00 0.00 0.00 89 1015.5
20260510020517 17 270 3.2 4.8 0.00 0.00 0.00 89 1015.3
20260510015517 17 280 3.2 4.8 0.00 0.00 0.00 89 1015.2
20260510014517 17 272 3.2 6.4 0.00 0.00 0.00 89 1015.0
20260510013516 17 267 4.8 6.4 0.00 0.00 0.00 89 1014.8
20260510012515 17 255 6.4 9.7 0.00 0.00 0.00 90 1014.7
20260510011516 17 268 4.8 6.4 0.00 0.00 0.00 93 1014.7
20260510010532 17 242 3.2 4.8 0.00 0.00 0.00 93 1014.5
20260510005600 17 270 1.6 4.8 0.00 0.00 0.00 92 1014.2
20260510004525 17 0.0 0.0 0.00 0.00 0.00 89 1014.2
20260510003531 18 0.0 0.0 0.00 0.00 0.00 86 1014.2
20260510002518 18 0.0 0.0 0.00 0.00 0.00 84 1014.1
20260510001525 19 0.0 0.0 0.00 0.00 0.00 81 1014.1
20260510000529 20 0.0 0.0 0.00 0.00 0.00 80 1013.8
20260509235517 20 284 1.6 4.8 0.00 0.00 0.00 78 1013.8
20260509234543 20 274 1.6 4.8 0.00 0.00 0.00 76 1013.8
20260509233528 21 0.0 0.0 0.00 0.00 0.00 75 1013.8
20260509232516 21 281 3.2 6.4 0.00 0.00 0.00 72 1013.7
20260509231522 21 260 4.8 8.0 0.00 0.00 0.00 69 1013.6
20260509230527 22 266 4.8 6.4 0.00 0.00 0.00 67 1013.3
20260509225532 22 269 6.4 11.3 0.00 0.00 0.00 66 1013.5
20260509224540 22 241 8.0 9.7 0.00 0.00 0.00 65 1013.3